This is the latest recevied weather packets stored in our database for station/object SR9WXM. If no packets are shown the sender has not sent any weather packets the latest 1 day(s).
| Time | Temp. | Humidity | Pressure | Rain* | Wind** | Luminosity | Snow |
|---|---|---|---|---|---|---|---|
| 1777959450 | 12.22° C | 100% | 0 hPa | - | 4.92 m/s, 192° | - | - |
| 1777959199 | 11.67° C | 100% | 0 hPa | - | 5.81 m/s, 198° | - | - |
| 1777958959 | 11.67° C | 100% | 0 hPa | - | 5.36 m/s, 208° | - | - |
| 1777958719 | 11.67° C | 100% | 0 hPa | - | 5.36 m/s, 198° | - | - |
| 1777958477 | 11.67° C | 100% | 0 hPa | - | 4.92 m/s, 206° | - | - |
| 1777958237 | 11.67° C | 100% | 0 hPa | - | 4.92 m/s, 213° | - | - |
| 1777957997 | 11.67° C | 100% | 0 hPa | - | 5.36 m/s, 210° | - | - |
| 1777957757 | 11.67° C | 100% | 0 hPa | - | 5.36 m/s, 209° | - | - |
| 1777957517 | 11.67° C | 100% | 0 hPa | - | 5.36 m/s, 198° | - | - |
| 1777957275 | 11.67° C | 100% | 0 hPa | - | 5.36 m/s, 207° | - | - |
| 1777957035 | 11.67° C | 100% | 0 hPa | - | 5.36 m/s, 210° | - | - |
| 1777956795 | 11.67° C | 100% | 0 hPa | - | 5.36 m/s, 206° | - | - |
| 1777956555 | 11.67° C | 100% | 0 hPa | - | 5.81 m/s, 204° | - | - |
| 1777956315 | 11.67° C | 100% | 0 hPa | - | 6.26 m/s, 202° | - | - |
| 1777956073 | 11.67° C | 100% | 0 hPa | - | 5.81 m/s, 205° | - | - |
| 1777955832 | 11.67° C | 100% | 0 hPa | - | 5.36 m/s, 208° | - | - |
| 1777955592 | 11.67° C | 100% | 0 hPa | - | 5.36 m/s, 193° | - | - |
| 1777955352 | 11.67° C | 100% | 0 hPa | - | 5.36 m/s, 205° | - | - |
| 1777955112 | 11.11° C | 100% | 0 hPa | - | 4.92 m/s, 202° | - | - |
| 1777954870 | 11.11° C | 100% | 0 hPa | - | 4.47 m/s, 207° | - | - |
| 1777954630 | 11.11° C | 100% | 0 hPa | - | 5.36 m/s, 193° | - | - |
| 1777954390 | 11.11° C | 100% | 0 hPa | - | 5.36 m/s, 212° | - | - |
| 1777954150 | 11.11° C | 100% | 0 hPa | - | 4.92 m/s, 197° | - | - |
| 1777953910 | 11.11° C | 100% | 0 hPa | - | 4.92 m/s, 202° | - | - |
| 1777953668 | 11.67° C | 100% | 0 hPa | - | 4.47 m/s, 207° | - | - |
* Rain since midnight (hover to see other rain measurements)
** Current wind speed in m/s (hover to see current wind gust speed)